User: anonymous   Login
Location: Brudzew
(52.0976°N, 18.6049°E)
Time: 17:20:37
(UTC+02:00)
Language:

ISS - Orbit

View from above orbital plane
View from above orbital plane
View from above satellite
View from above satellite

Ground track
Ground track

The orbit data is extracted from the following two-line orbital elements,

1 25544U 98067A   18290.52169697  .00016717  00000-0  10270-3 0  9024
2 25544  51.6367 129.0936 0004040 300.1807  59.8945 15.53828147 17537
Epoch (UTC): 17 October 2018 12:31:14
Eccentricity: 0.0004040
inclination: 51.6367°
perigee height: 403 km
apogee height: 408 km
right ascension of ascending node: 129.0936°
argument of perigee: 300.1807°
revolutions per day: 15.53828147
mean anomaly at epoch: 59.8945°
orbit number at epoch: 1753

The dashed part of the orbit path shows where the satellite is in the earth's shadow,  

DLR